Погода в Бакчаре

Погода в Бакчаре : погода сейчас, прогноз погоды и архив. Всё, что Вы хотите узнать о погоде в Бакчаре!

Хотите узнать прогноз погоды в Бакчаре? Тогда Вам сюда: Погода в Бакчаре

Поиск расширенной информации на нашем сайте:

Другие новости

Новости СМИ2

Главная страница сайта

Новости сайта

03.07.2017

Напоминаем, что на нашем специализированном сайте Метеоцентр.Азия вы можете получить высокодетализированные автоматические прогнозы погоды по пунктам России, СНГ и мира в авиационном формате (включающие направление и скорость ветра, видимость, явления погоды, количество и форму облачности, нижнюю и верхнюю границу облачности).

Рекомендуем: лучшие русские мелодрамы смотреть

Погода в Бакчаре - сегодня

Время (UTC), дата Ветер
(°,м/с) 
Видим.   Явления Облачность Т
(°С)
Тd
(°С)
f(%) Тe
(°С)
Pmin
(гПа)
dP
(гПа)
Po
(мм)
O2
(г/м3)
Тmin Tmax R s Состояние
почвы
00 19.02.18 200 (Ю) 20000 м  слаб. ливневой снег  9/6 300 м кучево-дожд., средняя 
[Cb cap|Ac trans]
-17.8 -20.7 78 -23  1031.7  -0.2  762  330  -17.9    0.8  61  равномерный
сухой снег
100% 
03 19.02.18 200 (Ю) 20000 м  слаб. ливневой снег  10/10 300 м кучево-дожд. 
[Cb cap]
-16.6 -19.4 79 -22  1032.3  0.7  763  329           
06 19.02.18 200 (Ю) 20000 м  слаб. ливневой снег  8/6 300 м кучево-дожд., средняя 
[Cb cap|Ac trans]
-12.8 -16.2 76 -18  1032  -0.2  763  324           
09 19.02.18 190 (Ю) 20000 м  позёмок{ливн. осадки}  9/8 600 м кучево-дожд., средняя 
[Cb cap|Ac trans]
-8.3 -11.9 75 -12  1031.3  -0.3  763  318           
12 19.02.18 180 (Ю) 20000 м  слаб. ливневой снег  10/10 300 м кучево-дожд. 
[Cb cap]
-9 -12.5 76 -14  1031.3  763  319    -8.1  0.4     
15 19.02.18 200 (Ю) 20000 м  слаб. ливневой снег  10/10 600 м кучево-дожд. 
[Cb cap]
-10 -13.4 76 -15  1031.4  -0.1  763  320           
18 19.02.18 200 (Ю) 20000 м  слаб. ливневой снег  10/10 300 м кучево-дожд. 
[Cb cap]
-10.6 -13.1 82 -15  1031.1  -0.3  762  321           
21 19.02.18 210 (ЮЗ) 10 км  слаб. ливневой снег  10/10 300 м кучево-дожд. 
[Cb cap]
-11.1 -13.4 83 -15  1030.9  -0.2  762  321           
00 20.02.18 210 (ЮЗ) 20000 м  слаб. ливневой снег  10/10 300 м кучево-дожд. 
[Cb cap]
-11.3 -13.7 82 -14  1031.1  0.2  762  322  -11.4    0.8  62  равномерный
сухой снег
100% 
06 20.02.18 190 (Ю) 20000 м  {ливн. осадки}  9/5 600 м кучево-дожд., средняя 
[Cb cap|Ac trans]
-9.4 -12.4 79 -13  1030.7  -0.3  763  319           
09 20.02.18 190 (Ю) 20000 м    10/0 средняя 
[As trans]
-7.2 -12 69 -10  1030.3  -0.8  762  316           
12 20.02.18 220 (ЮЗ) 20000 м    10/0 средняя 
[Ac und]
-6.4 -12.4 62 -9  1029.6  -0.7  761  315    -6.3  0.2     
15 20.02.18 200 (Ю) 20000 м    5/5 600 м 
[Sc]
-9.9 -14.7 68 -13  1029  -0.7  761  319           
18 20.02.18 210 (ЮЗ) 20000 м    8/3 600 м средняя 
[Sc|Ac As]
-10 -13.8 74 -12  1028.4  -0.7  760  319           
21 20.02.18 190 (Ю) 20000 м    3/0 средняя 
[Ac As]
-13.5 -15.5 85 -16  1028.1  -0.4  760  324           
00 21.02.18 170 (Ю) 20000 м    ясно 
-21.7 -24.3 79 -22  1028.4  -0.2  760  334  -21.7      62  равномерный
сухой снег
100% 
03 21.02.18 170 (Ю) 20000 м    10/0 средняя, верхняя 
[Ac lent|Cs]
-17.3 -19.4 84 -20  1027.5  -0.7  759  328  -22.6         
06 21.02.18 190 (Ю) 20000 м    4/0 верхняя 
[Ci fib]
-10.4 -15 69 -10  1027  -0.1  759  319           
09 21.02.18 тихо ()   20000 м    8/0 верхняя 
[Ci fib]
-3.9 -13.2 48 -4  1025.3  -1.4  758  311           
12 21.02.18 140 (ЮВ) 20000 м    10/0 средняя, верхняя 
[Ac und|Ci fib]
-8.9 -14.9 62 -9  1024.1  -1.4  757  317    -3.5       
15 21.02.18 090 (В) 20000 м    3/0 верхняя 
[Ci fib]
-11.3 -14.8 75 -14  1022.2  -2  756  319           
18 21.02.18 110 (В) 20000 м    10/0 средняя, верхняя 
[Ac As|Ci fib]
-10.3 -13.1 80 -13  1020.5  -1.6  755  317           
21 21.02.18 080 (В) 20000 м    10/0 средняя 
[Ac und]
-9.5 -12.5 79 -12  1018.2  -2.2  753  315           
00 22.02.18 080 (В) 20000 м    10/0 средняя 
[Ac und]
-9 -11.5 82 -13  1015.6  -2.5  751  314  -12.2      62  равномерный
сухой снег
100% 
03 22.02.18 090 (В) 20000 м  позёмок  10/3 600 м средняя, верхняя 
[Sc|Ac trans|Cc]
-7.5 -11.6 72 -12  1013.3  -2.2  749  312           
Время (UTC), дата Ветер
(°,м/с) 
Видим.   Явления Облачность Т
(°С)
Тd
(°С)
f(%) Тe
(°С)
Pmin
(гПа)
dP
(гПа)
Po
(мм)
O2
(г/м3)
Тmin Tmax R s Состояние
почвы

Для получения пояснительной информации подведите курсор к названию столбца.

ПОГОДА в Бакчаре - архив

Всё, что Вы хотите узнать о погоде в Бакчаре - удобно и подробно!

Выберите нужную дату (начиная с 1 января 2015* года) и нажмите кнопку "Найти".
Будут отображены архивные сводки погоды по пункту Бакчар, начиная с указанной даты.


Отображать данные в формате CSV (для использования в таблицах Excel)


Внимание! Наш архив погоды предназначен исключительно для личного некоммерческого использования в познавательных целях. Если Вам необходимы официальные справки о состоянии погоды (для производственных, юридических, коммерческих и т.п. целей), обращайтесь в органы Росгидромета.

*Примечание: данная дата относится к архиву по метеостанциям СССР (Россия, СНГ, Балтия).
Архив по метеостанциям Зарубежной Европы и Азии (кроме Китая) хранится 10 дней, по другим регионам земного шара (Китай, Африка, Америка, Австралия, Океания) - 1 день.

Бакчар - район местоположения метеостанции


Название, широта, долгота, высота метеостанции:
Бакчар 57.1°ш. 81.9°д. 110 м над ур. моря [Российская Федерация]

Дополнительная информация

В oтличие oт бoльшинства пoгoдных сайтoв мы публикуем пoдрoбную метеoинфoрмацию в детальнoм прoфессиoнальнoм фoрмате.

Характеристики температуры и влажнoсти вoздуха измеряются на высoте 2 м в тени вдали oт зданий и деревьев.
Скoрoсть ветра измеряется на высoте 10 м (на урoвне рoста челoвека скoрoсть ветра ниже в 1.5-2 раза). Если метеoстанция нахoдится в гoрoде или в лесу, тo скoрoсть ветра занижена на 2-4 м/с пo сравнению с oткрытым местoм. Скoрoсть ветра над акватoриями крупных рек и oзёр, а также на вершинах хoлмoв на 2-5 м/с выше, чем в oбычных услoвиях.
Атмoсфернoе давление в разных тoчках местнoсти мoжет значительнo oтличаться oт давления на метеoстанции, в зависимoсти oт услoвий рельефа (при пoдъёме на 10 м давление пoнижается примернo на 1 мм рт.ст.).